Other Public Products
Issued by NWS Charleston, SC

Current Version | Previous Version | Graphics & Text | Print | Product List | Glossary On
Versions: 1 2 3 4 5 6 7 8 9 10 11 12 13 14 15 16 17 18 19 20 21 22 23 24 25 26 27 28 29 30 31 32 33 34 35 36 37 38 39 40 41 42 43 44 45 46 47 48 49 50
477
FPUS82 KCHS 011612
OPUCHS

TEST...KCHS/KSAV Gateway Observations...TEST
National Weather Service Charleston SC
1100 AM EST WED MAR 01 2017

NOTE: "fair" indicates few or no clouds below 12,000 feet with no
significant weather and/or obstructions to visibility.

SCZ050-WAZ558-NCZ071-TXZ119-213-PAZ071-DCZ001-FLZ074-172-MI076-
NYZ176-178-MAZ016-IL014-TNZ027-NJZ106-GAZ044-MD014-011700-

...Gateway Observations for Charleston International...

CITY           SKY/WX    TMP DP  RH WIND       PRES   REMARKS
Chas Airport   PTSUNNY   77  64  64 S20       30.09F
Seattle        PTSUNNY   42  39  89 S22G32    30.33R
Charlotte      PTSUNNY   69  58  67 SW14G24   29.99S
Dallas DFW     MOSUNNY   58  27  30 N21G29    30.19R
Dallas Love    MOSUNNY   57  28  33 N17G25    30.20R
Philladelphia  CLOUDY    64  59  83 SW13      29.69F
Wash National  CLOUDY    69  61  75 SW20G26   29.71F
Baltimore      CLOUDY    67  60  78 SW17G29   29.68F
Miami          PTSUNNY   80  70  71 SE12      30.16S
Detroit        CLOUDY    54  51  90 SW16G24   29.38F
Newark         TSTM      60  56  86 W12       29.71R
Laguardia      LGT RAIN  60  53  77 S6        29.69F
J F K          FOG       51  50  96 S9        29.72F VSB 1
Boston Logan   CLOUDY    57  54  89 S10       29.67F
Ft. Lauderdale MOSUNNY   81  69  67 E14       30.16S
Chicago O`Hare LGT RAIN  40  38  93 NW10      29.53R FOG     WCI  33
Chicago Midway LGT RAIN  43  40  89 W21G26    29.53R FOG
Houston Bush   MOSUNNY   80  66  62 W12       30.01R
Houston Hobby  PTSUNNY   76  69  79 SW6       30.01R
Nashville      TSTM      61  57  87 W10G16    29.82R
Atlanta        PTSUNNY   73  61  65 SW17G31   30.02R

$$

GAZ044-118-TXZ119-213-NCZ071-DCZ001-MDZ014-506-PAZ021-071-NJZ106-
NYZ176-178-MAZ106-OHZ011-021-055-MIZ076-KYZ091-ILZ014-INZ047-
MNZ060-ONZ431-011700-

...Gateway Observations for Savannah International...

CITY           SKY/WX    TMP DP  RH WIND       PRES   REMARKS
Savannah Arpt  PTSUNNY   79  64  60 SW14G25   30.11F
Atlanta        PTSUNNY   73  61  65 SW17G31   30.02R
Charlotte      PTSUNNY   69  58  67 SW14G24   29.99S
Dallas DFW     MOSUNNY   58  27  30 N21G29    30.19R
Houston Bush   MOSUNNY   80  66  62 W12       30.01R
Wash National  CLOUDY    69  61  75 SW20G26   29.71F
Wash Dulles    CLOUDY    67  59  75 S17G24    29.69F
Baltimore      CLOUDY    67  60  78 SW17G29   29.68F
Philadelphia   CLOUDY    64  59  83 SW13      29.69F
Newark         TSTM      60  56  86 W12       29.71R
Laguardia      LGT RAIN  60  53  77 S6        29.69F
J F K          FOG       51  50  96 S9        29.72F VSB 1
Boston         CLOUDY    57  54  89 S10       29.67F
Pittsburg      RAIN      53  53 100 SW8       29.62R FOG
Akron          LGT RAIN  53  49  86 S18G29    29.54F
Cleveland      CLOUDY    56  49  77 S20G26    29.46F
Cincinnati     CLOUDY    56  52  86 SW16G24   29.61F
Columbus       CLOUDY    53  53  99 S14       29.60S
Detroit        CLOUDY    54  51  90 SW16G24   29.38F
Chicago O`Hare LGT RAIN  40  38  93 NW10      29.53R FOG     WCI  33
Minneapolis    PTSUNNY   27  19  72 N14G21    29.87R WCI  16
Indianapolis   CLOUDY    55  49  80 W21G29    29.60R
Toronto Canada CLOUDY    57  50  77 SW17G23   29.29F

$$




USA.gov is the U.S. government's official web portal to all federal, state and local government web resources and services.